Simultaneous Nadir Overpasses (SNOs) Predictions

Prediction of SNOs between NOAA-19 and TERRA Satellite Orbit:

Table of predicted SNOs for the next 14.0 days since TLE Epoch: 12/8/2013
Index Date (NOAA-19) Time (NOAA-19) Lat,Lon (NOAA-19) SZA (NOAA-19 ) Date (TERRA) Time (TERRA) Lat,Lon (TERRA) SZA (TERRA ) Distance(km) Time Diff (sec)
1 12/09/2013 06:01:15 69.99, 90.23 92.73 12/09/2013 06:01:44 70.00, 90.28 92.75 2.45 29
2 12/09/2013 06:52:17 -69.86,-102.33 87.40 12/09/2013 06:51:15 -69.83,-102.33 87.44 3.04 62
3 12/11/2013 10:45:23 69.99, 19.22 92.92 12/11/2013 10:46:01 69.99, 19.20 92.93 1.50 38
4 12/11/2013 11:36:25 -69.87,-173.37 87.20 12/11/2013 11:35:31 -69.88,-173.34 87.20 1.38 54
5 12/13/2013 15:29:32 70.04, -51.88 93.13 12/13/2013 15:30:17 70.02, -51.84 93.11 2.79 45
6 12/13/2013 16:20:33 -69.90, 115.57 87.02 12/13/2013 16:19:47 -69.91, 115.64 87.01 2.41 46
7 12/15/2013 20:13:40 70.06,-122.91 93.26 12/15/2013 20:14:33 70.03,-122.89 93.23 2.95 53
8 12/15/2013 21:04:40 -69.89, 44.58 86.91 12/15/2013 21:04:03 -69.92, 44.58 86.89 3.20 37
9 12/18/2013 00:57:48 70.08, 166.04 93.36 12/18/2013 00:58:48 70.08, 166.11 93.36 2.67 60
10 12/18/2013 01:48:48 -69.94, -26.50 86.78 12/18/2013 01:48:19 -69.91, -26.49 86.82 3.23 29
11 12/20/2013 05:41:55 70.06, 95.06 93.38 12/20/2013 05:43:04 70.05, 95.00 93.37 2.44 69
12 12/20/2013 06:32:55 -69.95, -97.53 86.73 12/20/2013 06:32:34 -69.94, -97.52 86.75 0.99 21




NCC Satellite Simultaneous Nadir Overpasses (SNOs) Prediction Service
